Location: Newark
(44.3248°N, 23.7839°E)
Time: 05:51:16
(UTC+00:00)

FO-29 - Pass Details

Date: 01 May 2024
Orbit: 801 x 1320 km, 98.6° (Epoch: 28 May)

Event Time Altitude Azimuth Distance (km) Brightness Sun altitude
Rises 00:58:27 0° 10° (N) 4,269 13.8 -20.7°
Reaches altitude 10° 01:01:11 10° 6° (N) 3,327 13.0 -20.3°
Maximum altitude 01:08:46 57° 292° (WNW) 1,535 10.3 -19.4°
Enters shadow 01:12:58 28° 227° (SW) 2,241 10.8 -18.9°
